Weather History for KVTP - July, 2013

Change the Weather History Date:

Friday, July 26, 2013

  Actual Average (KTAD) Record (KTAD)
Temperature  
Mean Temperature 54 °F 73 °F  
Max Temperature 64 °F 88 °F 100 °F (1953)
Min Temperature 44 °F 59 °F 51 °F (2004)
Degree Days  
Heating Degree Days 11 0  
Month to date heating degree days 0  
Since 1 June heating degree days 39  
Since 1 July heating degree days 0  
Cooling Degree Days 0 8  
Month to date cooling degree days 227  
Year to date cooling degree days 396  
Since 1 June cooling degree days 368  
Growing Degree Days 4 (Base 50)    
Moisture  
Dew Point 45 °F    
Average Humidity 73    
Maximum Humidity 93    
Minimum Humidity 52    
Precipitation  
Precipitation 0.00 in 0.08 in 1.72 in (1998)
Month to date precipitation 1.85  
Year to date precipitation 7.78  
Sea Level Pressure  
Sea Level Pressure 30.62 in    
Wind  
Wind Speed 6 mph (East)    
Max Wind Speed 17 mph    
Max Gust Speed 26 mph    
Visibility 10 miles    
Events Rain , Thunderstorm    
T = Trace of Precipitation, MM = Missing Value Source: NWS Daily Summary

Daily Weather History Graph

Daily Weather History Graph

Search for Another Location

Airport or City:

Trip Planner

Search our weather history database for the weather conditions in past years. The results will help you decide how hot, cold, wet, or windy it might be!

Date:

Astronomy

Jul. 26, 2013 Rise Set
Actual Time 6:00 AM MDT 8:13 PM MDT
Civil Twilight 5:30 AM MDT 8:43 PM MDT
Nautical Twilight 4:54 AM MDT 9:19 PM MDT
Astronomical Twilight 4:15 AM MDT 9:58 PM MDT
Moon 10:36 PM MDT (7/26) 10:32 AM MDT (7/26)
Length of Visible Light 15h 12m
Length of Day
14h 13m
Waning Gibbous, 79% of the Moon is Illuminated
Jul 26
Waning Gibbous
Jul 29
Last Quarter
Aug 6
New
Aug 14
First Quarter
Aug 20
Full

Hourly Weather History & Observations

Time (MDT) Temp. Windchill Dew Point Humidity Pressure Visibility Wind Dir Wind Speed Gust Speed Precip Events Conditions
12:15 AM 50.0 °F - 41.0 °F 71% 30.62 in 10.0 mi East 6.9 mph - N/A   Mostly Cloudy
12:35 AM 50.0 °F - 41.0 °F 71% 30.61 in 10.0 mi ESE 5.8 mph - N/A   Overcast
12:55 AM 48.2 °F - 41.0 °F 76% 30.61 in 10.0 mi East 9.2 mph - N/A   Mostly Cloudy
1:15 AM 48.2 °F - 41.0 °F 76% 30.61 in 10.0 mi East 8.1 mph - N/A   Mostly Cloudy
1:34 AM 48.2 °F - 41.0 °F 76% 30.61 in 10.0 mi ESE 8.1 mph - N/A   Mostly Cloudy
1:55 AM 48.2 °F - 41.0 °F 76% 30.61 in 10.0 mi ENE 9.2 mph - N/A   Mostly Cloudy
2:15 AM 46.4 °F 42.4 °F 41.0 °F 81% 30.61 in 10.0 mi ENE 8.1 mph - N/A   Overcast
2:35 AM 46.4 °F 42.4 °F 41.0 °F 81% 30.61 in 10.0 mi ENE 8.1 mph - N/A   Mostly Cloudy
2:54 AM 44.6 °F 40.7 °F 41.0 °F 87% 30.61 in 10.0 mi ENE 6.9 mph - N/A   Scattered Clouds
3:12 AM 46.4 °F 42.4 °F 41.0 °F 81% 30.61 in 10.0 mi NE 8.1 mph - N/A   Clear
3:34 AM 46.4 °F 44.3 °F 42.8 °F 87% 30.61 in 10.0 mi NE 4.6 mph - N/A   Clear
3:55 AM 44.6 °F - 42.8 °F 93% 30.60 in 10.0 mi Calm Calm - N/A   Clear
4:14 AM 46.4 °F - 41.0 °F 81% 30.59 in 10.0 mi Calm Calm - N/A   Clear
4:35 AM 46.4 °F - 41.0 °F 81% 30.60 in 10.0 mi Calm Calm - N/A   Clear
4:55 AM 46.4 °F - 41.0 °F 81% 30.60 in 10.0 mi Calm Calm - N/A   Clear
5:15 AM 46.4 °F - 41.0 °F 81% 30.60 in 10.0 mi Calm Calm - N/A   Clear
5:35 AM 46.4 °F 45.2 °F 41.0 °F 81% 30.60 in 10.0 mi SSW 3.5 mph - N/A   Clear
5:54 AM 46.4 °F - 41.0 °F 81% 30.61 in 10.0 mi Calm Calm - N/A   Clear
6:15 AM 46.4 °F - 41.0 °F 81% 30.61 in 10.0 mi Calm Calm - N/A   Clear
6:34 AM 46.4 °F 45.2 °F 41.0 °F 81% 30.61 in 10.0 mi WSW 3.5 mph - N/A   Clear
6:55 AM 46.4 °F 45.2 °F 41.0 °F 81% 30.61 in 10.0 mi SW 3.5 mph - N/A   Clear
7:15 AM 48.2 °F - 42.8 °F 82% 30.61 in 10.0 mi WSW 5.8 mph - N/A   Clear
7:35 AM 50.0 °F - 44.6 °F 82% 30.61 in 10.0 mi WSW 4.6 mph - N/A   Clear
7:55 AM 50.0 °F - 44.6 °F 82% 30.61 in 10.0 mi WSW 4.6 mph - N/A   Clear
8:15 AM 53.6 °F - 46.4 °F 77% 30.63 in 10.0 mi Calm Calm - N/A   Clear
8:34 AM 53.6 °F - 46.4 °F 77% 30.63 in 10.0 mi Calm Calm - N/A   Clear
8:54 AM 55.4 °F - 46.4 °F 72% 30.63 in 10.0 mi Calm Calm - N/A   Clear
9:15 AM 57.2 °F - 46.4 °F 67% 30.63 in 10.0 mi Calm Calm - N/A   Clear
9:34 AM 59.0 °F - 46.4 °F 63% 30.63 in 10.0 mi Calm Calm - N/A   Clear
9:55 AM 59.0 °F - 46.4 °F 63% 30.64 in 10.0 mi Calm Calm - N/A   Clear
10:15 AM 57.2 °F - 48.2 °F 72% 30.64 in 10.0 mi Calm Calm - N/A   Clear
10:35 AM 59.0 °F - 46.4 °F 63% 30.65 in 10.0 mi NW 3.5 mph - N/A   Scattered Clouds
10:55 AM 60.8 °F - 48.2 °F 63% 30.65 in 10.0 mi Calm Calm - N/A Thunderstorm Scattered Clouds
11:14 AM 60.8 °F - 50.0 °F 68% 30.65 in 10.0 mi Calm Calm - N/A   Mostly Cloudy
11:34 AM 62.6 °F - 50.0 °F 63% 30.65 in 10.0 mi ENE 8.1 mph - N/A   Scattered Clouds
11:55 AM 62.6 °F - 50.0 °F 63% 30.65 in 10.0 mi ENE 9.2 mph - N/A Thunderstorm Mostly Cloudy
12:15 PM 60.8 °F - 50.0 °F 68% 30.64 in 10.0 mi ENE 11.5 mph 17.3 mph N/A   Overcast
12:35 PM 57.2 °F - 50.0 °F 77% 30.65 in 10.0 mi ENE 9.2 mph 17.3 mph N/A   Overcast
12:54 PM 57.2 °F - 50.0 °F 77% 30.65 in 10.0 mi ENE 10.4 mph - N/A   Overcast
1:15 PM 57.2 °F - 50.0 °F 77% 30.63 in 10.0 mi East 10.4 mph - N/A   Overcast
1:35 PM 55.4 °F - 50.0 °F 82% 30.63 in 10.0 mi East 12.7 mph - N/A Thunderstorm Mostly Cloudy
1:55 PM 64.4 °F - 51.8 °F 64% 30.63 in 10.0 mi ENE 13.8 mph 19.6 mph N/A   Scattered Clouds
2:14 PM 62.6 °F - 50.0 °F 63% 30.63 in 10.0 mi ENE 12.7 mph 17.3 mph N/A   Mostly Cloudy
2:35 PM 62.6 °F - 50.0 °F 63% 30.61 in 10.0 mi ENE 11.5 mph 18.4 mph N/A Thunderstorm Mostly Cloudy
2:54 PM 62.6 °F - 46.4 °F 55% 30.63 in 10.0 mi ENE 12.7 mph 21.9 mph N/A   Mostly Cloudy
3:15 PM 59.0 °F - 46.4 °F 63% 30.64 in 10.0 mi ENE 9.2 mph 17.3 mph N/A Thunderstorm Thunderstorm
3:35 PM 55.4 °F - 44.6 °F 67% 30.63 in 10.0 mi ESE 6.9 mph - N/A   Light Drizzle
3:55 PM 60.8 °F - 46.4 °F 59% 30.61 in 10.0 mi ENE 10.4 mph - N/A   Scattered Clouds
4:15 PM 62.6 °F - 44.6 °F 52% 30.61 in 10.0 mi ENE 9.2 mph 16.1 mph N/A Thunderstorm Thunderstorm
4:34 PM 62.6 °F - 44.6 °F 52% 30.61 in 10.0 mi East 8.1 mph - N/A   Clear
4:55 PM 62.6 °F - 44.6 °F 52% 30.61 in 10.0 mi ENE 10.4 mph 17.3 mph N/A   Scattered Clouds
5:14 PM 60.8 °F - 44.6 °F 55% 30.61 in 10.0 mi ENE 12.7 mph 20.7 mph N/A   Clear
5:35 PM 60.8 °F - 44.6 °F 55% 30.59 in 10.0 mi ENE 12.7 mph 23.0 mph N/A   Clear
5:55 PM 59.0 °F - 44.6 °F 59% 30.58 in 10.0 mi ENE 13.8 mph 21.9 mph N/A   Clear
6:15 PM 60.8 °F - 44.6 °F 55% 30.59 in 10.0 mi ENE 13.8 mph 25.3 mph N/A   Scattered Clouds
6:34 PM 59.0 °F - 46.4 °F 63% 30.58 in 10.0 mi East 17.3 mph 23.0 mph N/A   Mostly Cloudy
6:52 PM 57.2 °F - 46.4 °F 67% 30.58 in 10.0 mi East 15.0 mph 23.0 mph N/A   Overcast
7:15 PM 55.4 °F - 50.0 °F 82% 30.61 in 3.0 mi NNE 11.5 mph 20.7 mph N/A Rain , Thunderstorm Heavy Thunderstorms and Rain
7:34 PM 48.2 °F - 44.6 °F 87% 30.61 in 3.0 mi SE 8.1 mph 26.5 mph N/A Rain , Thunderstorm Light Thunderstorms and Rain
7:55 PM 48.2 °F - 44.6 °F 87% 30.61 in 10.0 mi South 6.9 mph - N/A   Mostly Cloudy
8:15 PM 48.2 °F - 46.4 °F 93% 30.61 in 10.0 mi South 4.6 mph - N/A Thunderstorm Thunderstorm
8:35 PM 50.0 °F - 44.6 °F 82% 30.61 in 10.0 mi SSW 3.5 mph - N/A Thunderstorm Thunderstorm
8:55 PM 50.0 °F - 44.6 °F 82% 30.61 in 10.0 mi SSW 4.6 mph - N/A   Scattered Clouds
9:15 PM 50.0 °F - 44.6 °F 82% 30.61 in 10.0 mi SSW 4.6 mph - N/A   Mostly Cloudy
9:35 PM 51.8 °F - 44.6 °F 76% 30.61 in 10.0 mi Calm Calm - N/A   Scattered Clouds
9:55 PM 50.0 °F - 44.6 °F 82% 30.62 in 10.0 mi SSW 4.6 mph - N/A   Mostly Cloudy
10:15 PM 51.8 °F - 42.8 °F 71% 30.63 in 10.0 mi Calm Calm - N/A   Overcast
10:35 PM 51.8 °F - 44.6 °F 76% 30.63 in 10.0 mi SW 4.6 mph - N/A   Overcast
10:55 PM 50.0 °F - 42.8 °F 76% 30.63 in 10.0 mi SW 6.9 mph - N/A   Overcast
11:15 PM 50.0 °F - 42.8 °F 76% 30.63 in 10.0 mi SW 6.9 mph - N/A   Overcast
11:34 PM 50.0 °F - 42.8 °F 76% 30.63 in 10.0 mi SW 9.2 mph - N/A   Mostly Cloudy
11:55 PM 50.0 °F - 42.8 °F 76% 30.63 in 10.0 mi SW 4.6 mph - N/A   Mostly Cloudy